Location: Makanda
(37.6176°N, 89.2090°W)
Time: 22:02:24
(UTC+00:00)

Ariane Rocket - Pass Details

Date: 23 September 2019
Orbit: 761 x 769 km, 98.8° (Epoch: 14 October)

Event Time Altitude Azimuth Distance (km) Brightness Sun altitude
Rises 01:29:01 0° 182° (S) 3,208 6.1 -19.4°
Reaches altitude 10° 01:31:24 10° 188° (S) 2,288 5.4 -19.9°
Maximum altitude 01:36:12 45° 260° (W) 1,042 4.1 -20.8°
Drops below altitude 10° 01:41:03 10° 333° (NNW) 2,308 6.1 -21.7°
Sets 01:43:29 0° 340° (NNW) 3,240 6.8 -22.1°
